Regional Weather Roundup
Issued by NWS

Home | Current Version | Previous Version | Graphics & Text | Print | Product List | Glossary On
Versions: 1 2 3 4 5 6 7 8 9 10 11 12 13 14 15 16 17 18 19 20 21 22 23 24 25 26 27 28 29 30 31 32 33 34 35 36 37 38 39 40 41 42 43 44 45 46 47 48 49 50
000
ASUS43 KFSD 291310
RWRSD

WEATHER ROUNDUP FOR SOUTH DAKOTA
NATIONAL WEATHER SERVICE SIOUX FALLS SD
800 AM CDT FRI AUG 29 2014

NOTE: "FAIR" INDICATES FEW OR NO CLOUDS BELOW 12,000 FEET WITH NO
SIGNIFICANT WEATHER AND/OR OBSTRUCTIONS TO VISIBILITY.


SDZ001>005-009-010-012>017-291400-
NORTHWEST AND NORTH CENTRAL SOUTH DAKOTA

CITY           SKY/WX    TMP DP  RH WIND       PRES   REMARKS
BUFFALO          N/A     61  55  81 N15       29.92R
FAITH            N/A     62  58  86 W10       29.86R
MOBRIDGE       FOG       62  62 100 S5        29.80S VSB<1/4
$$

SDZ012>016-024>037-041>051-057-063-072>074-291400-
SOUTHWEST AND SOUTH CENTRAL SOUTH DAKOTA

CITY           SKY/WX    TMP DP  RH WIND       PRES   REMARKS
RAPID CTY ARPT PTCLDY    67  50  54 N21G38    29.95R
PIERRE         FOG       65  65 100 NW6       29.82S VSB 1/4
CUSTER         MOCLDY    57  45  64 NW5       30.06R
ELLSWORTH AFB  MOCLDY    67  51  56 N23G32    29.95R
PHILIP         PTCLDY    57  55  93 W6        29.86R
PINE RIDGE     CLEAR     51  49  92 CALM      29.94R
WINNER         PTSUNNY   64  62  93 W7        29.84R
$$

SDZ004>011-016>023-039-040-291400-
NORTHEAST SOUTH DAKOTA

CITY           SKY/WX    TMP DP  RH WIND       PRES   REMARKS
ABERDEEN       CLOUDY    64  64 100 NW9       29.79F
WATERTOWN      FOG       66  65  96 CALM      29.79R VSB 1/4
SISSETON         N/A     66  66 100 CALM      29.78R
$$

SDZ017-020-022-023-036>040-048>070-291400-
SOUTHEAST SOUTH DAKOTA

CITY           SKY/WX    TMP DP  RH WIND       PRES   REMARKS
SIOUX FALLS    CLOUDY    69  66  90 VRB5      29.79S
HURON          CLOUDY    68  67  96 N6        29.78S FOG
CHAMBERLAIN    CLOUDY    66  66 100 NW6       29.82R FOG
MITCHELL       FOG       69  69 100 NW3       29.80R VSB 3/4
YANKTON        CLOUDY    68  66  94 NW7       29.79S
$$

ABBREVIATIONS USED IN REMARKS
   TC - TEMPERATURE IN CELSIUS
  WCI - WIND CHILL INDEX
   HX - HEAT INDEX
  VSB - VISIBILITY



USA.gov is the U.S. government's official web portal to all federal, state and local government web resources and services.